Regional Weather Roundup
Issued by NWS

Home | Current Version | Previous Version | Graphics & Text | Print | Product List | Glossary On
Versions: 1 2 3 4 5 6 7 8 9 10 11 12 13 14 15 16 17 18 19 20 21 22 23 24 25 26 27 28 29 30 31 32 33 34 35 36 37 38 39 40 41 42 43 44 45 46 47 48 49 50
000
ASUS43 KMPX 060810
RWRMN
WEATHER ROUNDUP FOR MINNESOTA
NATIONAL WEATHER SERVICE TWIN CITIES/CHANHASSEN MN
200 AM CST FRI MAR 06 2015


NOTE: "FAIR" INDICATES FEW OR NO CLOUDS BELOW 12,000 FEET WITH NO
SIGNIFICANT WEATHER AND/OR OBSTRUCTIONS TO VISIBILITY. N/A MEANS
CURRENT SKY AND/OR WEATHER CONDITIONS ARE NOT AVAILABLE.

MNZ060>063-068>070-060900-
   Twin Cities Metro

CITY           SKY/WX    TMP DP  RH WIND       PRES   REMARKS
TWIN CITIES    CLOUDY    10   2  69 SE7       30.21F WCI  -1
ST PAUL        CLOUDY    10   2  69 S10       30.23F WCI  -4
CRYSTAL        CLOUDY    14   3  61 S10       30.17F WCI   1
BLAINE         CLOUDY    12   7  79 S12       30.17F WCI  -2
LAKEVILLE      CLOUDY     9   0  66 S12       30.21F WCI  -6
EDEN PRAIRIE   CLOUDY    11   2  67 S12       30.18F WCI  -3
SOUTH ST PAUL  CLOUDY    10   2  68 S6        30.22F WCI   1
LAKE ELMO      CLOUDY    10   3  72 S12G17    30.22F WCI  -4
$$
MNZ001>005-007-008-013>017-022>024-027-028-060900-
   Northwest Minnesota

CITY           SKY/WX    TMP DP  RH WIND       PRES   REMARKS
BEMIDJI        MOCLDY    14   5  67 SW10      29.94F WCI   1
HALLOCK        CLEAR     12   7  79 W7        29.92R WCI   2
ROSEAU         CLEAR     18  10  73 SW12      29.89R WCI   5
WARROAD        CLEAR     16  10  79 SW7       29.88S WCI   6
THIEF RVR FALL PTCLDY    16  10  79 SW14      29.92F WCI   1
CROOKSTON      CLEAR     16  10  79 SW13      29.97S WCI   2
FOSSTON        CLOUDY    14   9  79 S16       29.94F WCI  -2
DETROIT LAKES  PTCLDY    19  10  68 SW7       29.99S WCI  10
MOORHEAD       CLOUDY    16  10  79 S13       30.00F WCI   2
PARK RAPIDS    CLOUDY    10   3  73 S5        29.98F WCI   2
MAHNOMEN       CLOUDY    16   9  71 S12       29.96F WCI   3
$$
MNZ006-009>011-018-025>026-060900-
   North Central Minnesota

CITY           SKY/WX    TMP DP  RH WIND       PRES   REMARKS
BAUDETTE       PTCLDY    14   5  67 SW9       29.87F WCI   2
FLAG ISLAND    PTCLDY    14   7  73 SW9       29.85S WCI   2
INTL FALLS     CLOUDY    12   2  64 SW8       29.91F WCI   0
WASKISH        CLOUDY    18   9  68 S6        29.90F WCI   9
BIG FORK       CLOUDY    10   1  67 S14       29.94F WCI  -5
LONGVILLE      CLOUDY    10   1  67 S5        30.00F WCI   2
GRAND RAPIDS   CLOUDY     5   0  78 S7        29.98F WCI  -7
CRANE LAKE     CLOUDY    10   1  67 S9        29.98F WCI  -2
ORR            CLOUDY     9   0  66 S7        29.93F WCI  -3
COOK           CLOUDY     9   0  66 S8        29.98F WCI  -4
WALKER         CLOUDY    13   3  65 SW12      29.96F WCI  -1
$$
MNZ012-019>021-037-060900-
   Northeast Minnesota

CITY           SKY/WX    TMP DP  RH WIND       PRES   REMARKS
DULUTH         CLEAR      7  -2  66 SW16      30.04F WCI -11
ELY            MOCLDY     7   0  72 SW10G17   29.99F WCI  -8
HIBBING        MOCLDY     3  -3  76 S3        30.00F
EVELETH        CLEAR      5   0  78 S5        30.02F WCI  -4
DULUTH HARBOR  CLEAR      9   0  66 SW18      30.14F WCI -10
TWO HARBORS    CLEAR      7  -2  66 SW7       30.07F WCI  -5
SILVER BAY     CLEAR      9   0  66 SW8       30.06F WCI  -4
GRAND MARAIS     N/A     13   3  64 W9G24     30.10F WCI   1
G MARAIS ARPRT PTCLDY     3  -6  66 S12G20    29.99F WCI -13
$$
MNZ029>031-032-039>041-046>048-054>057-064-060900-
   West Central Minnesota

CITY           SKY/WX    TMP DP  RH WIND       PRES   REMARKS
FERGUS FALLS   CLOUDY    14   5  67 S10       30.06F WCI   1
WHEATON        CLOUDY    12   5  73 S12       30.05F WCI  -2
MORRIS         CLEAR     10   5  79 S12       30.04F WCI  -4
ALEXANDRIA     CLEAR     13   4  67 S15       30.02F WCI  -3
ELBOW LAKE     CLOUDY    12   6  76 S15       30.03F WCI  -4
WADENA         CLOUDY     9   3  78 S8        30.00F WCI  -4
GLENWOOD       CLEAR     10   5  79 S9        30.06F WCI  -2
APPLETON       CLEAR     12   7  79 S5        30.08F WCI   4
BENSON         CLEAR     10   5  79 S7        30.08F WCI   0
ORTONVILLE     CLEAR     14   3  62 S5        30.05F WCI   6
MADISON        CLEAR     21  10  63 SW15      30.07F WCI   8
WILLMAR        FAIR      12   5  73 SE8       30.11F WCI   1
$$
MNZ033>034-036-042>043-049>051-058-059-060900-
   Central Minnesota

CITY           SKY/WX    TMP DP  RH WIND       PRES   REMARKS
ST CLOUD       FAIR       9   2  73 S12       30.12F WCI  -6
SAUK CENTRE    FAIR      10   4  75 S8        30.07F WCI  -2
PAYNESVILLE    CLEAR     10   4  75 SE8       30.10F WCI  -2
AITKIN         PTCLDY     9   1  72 S8        30.03F WCI  -4
PINE RIVER     CLOUDY    10   3  72 S8        30.04F WCI  -1
BRAINERD       PTCLDY     8   1  73 S13       30.05F WCI  -8
STAPLES        MOCLDY    10   3  72 S10       30.02F WCI  -3
LONG PRAIRIE   FAIR      10   3  72 S10       30.05F WCI  -3
LITTLE FALLS   CLEAR      5   0  78 SE6       30.09F WCI  -6
LITCHFIELD     CLEAR     12   7  79 CALM      30.12F
BUFFALO        CLEAR     13   4  65 S8G16     30.16F WCI   2
MAPLE LAKE     CLEAR     12   6  76 S7        30.15F WCI   2
$$
MNZ037-044-045-052-053-060900-
   East Central Minnesota

CITY           SKY/WX    TMP DP  RH WIND       PRES   REMARKS
PRINCETON      CLEAR     10   3  72 S7        30.13F WCI   0
MORA           CLEAR      5   0  78 S3        30.15F
CAMBRIDGE      MOCLDY     9   0  66 S7        30.13F WCI  -3
RUSH CITY      MOCLDY     5   0  78 S9        30.16F WCI  -9
MOOSE LAKE     CLEAR      5   0  78 S8        30.10F WCI  -8
HINCKLEY       FAIR       5   1  85 S8        30.14F WCI  -8
CLOQUET        CLEAR      7   0  72 S13G18    30.06F WCI  -9
MCGREGOR       CLEAR      9   3  78 S9        30.06F WCI  -5
$$
MNZ071>073-080-081-089-090-097-098-060900-
   Southwest Minnesota

CITY           SKY/WX    TMP DP  RH WIND       PRES   REMARKS
MONTEVIDEO     CLEAR     14   9  79 S5        30.10F WCI   6
GRANITE FALLS  CLEAR     13   7  77 S8        30.12F WCI   2
CANBY          CLEAR     22  10  58 SW18G29   30.07F WCI   7
MARSHALL       CLEAR     19   7  58 SW20G26   30.09F WCI   4
REDWOOD FALLS  CLEAR     13   5  70 S8        30.13F WCI   2
OLIVIA         CLEAR     12   9  85 S8        30.12F WCI   1
PIPESTONE      CLEAR     16   9  73 S8        30.10S WCI   5
WINDOM         CLEAR     18   7  62 S14G21    30.14R WCI   4
WORTHINGTON    CLEAR     18   7  62 S17       30.15S WCI   2
JACKSON        CLEAR     18   7  62 S16       30.15F WCI   3
TRACY          CLEAR     20  10  63 SW23G29   30.10F WCI   3
SLAYTON        CLEAR     17   7  64 SW21      30.11S WCI   0
$$
MNZ065>067-074>077-082>085-091>093-060900-
   South Central Minnesota

CITY           SKY/WX    TMP DP  RH WIND       PRES   REMARKS
MANKATO        CLEAR     10   1  67 S10G16    30.18F WCI  -3
NEW ULM        CLEAR     12   5  73 S15       30.15F WCI  -4
ST JAMES       CLEAR     16   7  67 S14       30.17F WCI   1
FAIRMONT       CLEAR     12   3  67 S18       30.16F WCI  -5
GLENCOE        CLEAR     13   7  75 S6        30.15F WCI   4
FARIBAULT      CLEAR      7   0  72 S14       30.21F WCI -10
OWATONNA       PTCLDY     9   0  66 S17       30.21F WCI -10
WASECA         CLEAR     12   3  67 S20       30.23F WCI  -6
ALBERT LEA     PTCLDY     9   0  66 S14G21    30.23F WCI  -8
$$
MNZ078>079-086>088-094>096-060900-
   Southeast Minnesota

CITY           SKY/WX    TMP DP  RH WIND       PRES   REMARKS
ROCHESTER      CLEAR      3  -4  72 S14       30.25F WCI -15
RED WING       PTCLDY     5  -2  72 SE3       30.26F
STANTON        MOCLDY    11   1  65 S14G21    30.21F WCI  -5
DODGE CENTER   PTCLDY     5   0  78 S18       30.22F WCI -15
WINONA         PTCLDY     9   0  66 SE7       30.34F WCI  -3
AUSTIN         PTCLDY     3  -2  78 S15       30.26F WCI -15
PRESTON        PTCLDY     2  -5  75 S16       30.28F WCI -18
$$
ABBREVIATIONS USED IN REMARKS
   TC - TEMPERATURES IN CELSIUS
  WCI - WIND CHILL INDEX
   HX - HEAT INDEX
  VSB - VISIBILITY
$$



USA.gov is the U.S. government's official web portal to all federal, state and local government web resources and services.